Time,TemperatureF,DewpointF,PressureIn,WindDirection,WindDirectionDegrees,WindSpeedMPH,WindSpeedGustMPH,Humidity,HourlyPrecipIn,Conditions,Clouds,dailyrainin,SoftwareType,DateUTC
2013-12-14 00:00:00,8.6,-1.2,30.26,NNE,23,5.4,5.4,64,0.00,,,0.00,WUHU216HW,2013-12-14 06:00:00,
2013-12-14 00:05:00,8.6,-1.2,30.26,NE,45,9.2,9.2,64,0.00,,,0.00,WUHU216HW,2013-12-14 06:05:00,
2013-12-14 00:06:00,8.6,-1.2,30.26,NE,45,9.2,9.2,64,0.00,,,0.00,WUHU216HW,2013-12-14 06:06:00,
2013-12-14 00:30:00,8.8,-0.6,30.25,NNE,23,10.1,10.1,65,0.00,,,0.00,WUHU216HW,2013-12-14 06:30:00,
2013-12-14 00:35:00,8.6,-0.8,30.25,NNE,23,10.1,10.1,65,0.00,,,0.00,WUHU216HW,2013-12-14 06:35:00,
2013-12-14 00:36:00,8.6,-0.8,30.25,NNE,23,10.1,10.1,65,0.00,,,0.00,WUHU216HW,2013-12-14 06:36:00,
2013-12-14 01:00:00,8.6,-1.2,30.23,NE,45,6.7,6.7,64,0.00,,,0.00,WUHU216HW,2013-12-14 07:00:00,
2013-12-14 01:05:00,8.6,-1.5,30.23,NE,45,7.2,7.2,63,0.00,,,0.00,WUHU216HW,2013-12-14 07:05:00,
2013-12-14 01:06:00,8.6,-1.5,30.23,NE,45,7.2,7.2,63,0.00,,,0.00,WUHU216HW,2013-12-14 07:06:00,
2013-12-14 01:30:00,8.6,-1.5,30.23,North,0,4.7,4.7,63,0.00,,,0.00,WUHU216HW,2013-12-14 07:30:00,
2013-12-14 01:31:00,8.6,-1.2,30.23,NNE,23,8.5,8.5,64,0.00,,,0.00,WUHU216HW,2013-12-14 07:31:00,
2013-12-14 01:35:00,8.6,-1.2,30.23,NNE,23,8.5,8.5,64,0.00,,,0.00,WUHU216HW,2013-12-14 07:35:00,
2013-12-14 01:36:00,8.6,-1.2,30.23,NNE,23,8.5,8.5,64,0.00,,,0.00,WUHU216HW,2013-12-14 07:36:00,
2013-12-14 02:00:00,8.6,-1.2,30.22,NE,45,10.3,10.3,64,0.00,,,0.00,WUHU216HW,2013-12-14 08:00:00,
2013-12-14 02:05:00,8.6,-1.2,30.22,NE,45,5.4,10.3,64,0.00,,,0.00,WUHU216HW,2013-12-14 08:05:00,
2013-12-14 02:06:00,8.6,-1.2,30.22,NE,45,5.4,10.3,64,0.00,,,0.00,WUHU216HW,2013-12-14 08:06:00,
2013-12-14 02:10:00,8.6,-1.2,30.22,NE,45,5.4,6.9,64,0.00,,,0.00,WUHU216HW,2013-12-14 08:10:00,
2013-12-14 02:30:00,8.5,-1.3,30.22,NE,45,8.1,8.1,64,0.00,,,0.00,WUHU216HW,2013-12-14 08:30:00,
2013-12-14 02:31:00,8.5,-1.3,30.22,NE,45,7.3,8.1,64,0.00,,,0.00,WUHU216HW,2013-12-14 08:31:00,
2013-12-14 02:35:00,8.5,-1.3,30.22,NE,45,5.8,8.1,64,0.00,,,0.00,WUHU216HW,2013-12-14 08:35:00,
2013-12-14 02:36:00,8.5,-1.3,30.22,NE,45,5.8,8.1,64,0.00,,,0.00,WUHU216HW,2013-12-14 08:36:00,
2013-12-14 02:40:00,8.5,-1.3,30.22,NE,45,5.8,5.8,64,0.00,,,0.00,WUHU216HW,2013-12-14 08:40:00,
2013-12-14 03:00:00,8.3,-1.5,30.22,NNE,23,4.7,4.7,64,0.00,,,0.00,WUHU216HW,2013-12-14 09:00:00,
2013-12-14 03:01:00,8.3,-1.5,30.21,NNE,28,4.6,4.7,64,0.00,,,0.00,WUHU216HW,2013-12-14 09:01:00,
2013-12-14 03:05:00,8.3,-1.5,30.21,NE,45,4.3,4.7,64,0.00,,,0.00,WUHU216HW,2013-12-14 09:05:00,
2013-12-14 03:06:00,8.3,-1.5,30.21,NE,45,4.3,4.7,64,0.00,,,0.00,WUHU216HW,2013-12-14 09:06:00,
2013-12-14 03:07:00,8.3,-1.5,30.21,NE,45,4.3,4.7,64,0.00,,,0.00,WUHU216HW,2013-12-14 09:07:00,
2013-12-14 03:10:00,8.3,-1.5,30.21,NE,45,4.3,4.7,64,0.00,,,0.00,WUHU216HW,2013-12-14 09:10:00,
2013-12-14 03:30:00,8.1,-2.0,30.20,NE,45,5.4,5.4,63,0.00,,,0.00,WUHU216HW,2013-12-14 09:30:00,
2013-12-14 03:31:00,8.3,-1.5,30.20,ENE,58,4.2,5.4,64,0.00,,,0.00,WUHU216HW,2013-12-14 09:31:00,
2013-12-14 03:35:00,8.3,-1.5,30.20,ENE,68,3.6,5.4,64,0.00,,,0.00,WUHU216HW,2013-12-14 09:35:00,
2013-12-14 03:36:00,8.3,-1.5,30.20,ENE,68,3.6,5.4,64,0.00,,,0.00,WUHU216HW,2013-12-14 09:36:00,
2013-12-14 03:40:00,8.3,-1.5,30.20,ENE,68,3.6,3.6,64,0.00,,,0.00,WUHU216HW,2013-12-14 09:40:00,
2013-12-14 04:00:00,8.3,-1.5,30.21,North,0,6.9,6.9,64,0.00,,,0.00,WUHU216HW,2013-12-14 10:00:00,
2013-12-14 04:05:00,8.3,-1.2,30.21,NNW,338,10.1,10.1,65,0.00,,,0.00,WUHU216HW,2013-12-14 10:05:00,
2013-12-14 04:06:00,8.3,-1.2,30.21,NNW,338,10.1,10.1,65,0.00,,,0.00,WUHU216HW,2013-12-14 10:06:00,
2013-12-14 04:10:00,8.3,-1.2,30.21,NNW,338,10.1,10.1,65,0.00,,,0.00,WUHU216HW,2013-12-14 10:10:00,
2013-12-14 04:30:00,8.3,-1.5,30.19,ENE,68,3.6,3.6,64,0.00,,,0.00,WUHU216HW,2013-12-14 10:30:00,
2013-12-14 04:31:00,8.1,-1.6,30.19,NE,45,6.3,6.3,64,0.00,,,0.00,WUHU216HW,2013-12-14 10:31:00,
2013-12-14 04:35:00,8.1,-1.6,30.19,NE,45,6.3,6.3,64,0.00,,,0.00,WUHU216HW,2013-12-14 10:35:00,
2013-12-14 04:36:00,8.1,-1.6,30.19,NE,45,6.3,6.3,64,0.00,,,0.00,WUHU216HW,2013-12-14 10:36:00,
2013-12-14 04:40:00,8.1,-1.6,30.19,NE,45,6.3,6.3,64,0.00,,,0.00,WUHU216HW,2013-12-14 10:40:00,
2013-12-14 05:00:00,8.3,-1.5,30.19,NE,45,4.3,4.3,64,0.00,,,0.00,WUHU216HW,2013-12-14 11:00:00,
2013-12-14 05:05:00,8.3,-1.8,30.19,NNE,23,3.4,4.3,63,0.00,,,0.00,WUHU216HW,2013-12-14 11:05:00,
2013-12-14 05:10:00,8.3,-1.8,30.19,NNE,23,3.4,3.4,63,0.00,,,0.00,WUHU216HW,2013-12-14 11:10:00,
2013-12-14 05:30:00,8.3,-1.8,30.18,ENE,68,4.3,4.3,63,0.00,,,0.00,WUHU216HW,2013-12-14 11:30:00,
2013-12-14 05:31:00,8.1,-2.3,30.18,ENE,68,4.3,4.3,62,0.00,,,0.00,WUHU216HW,2013-12-14 11:31:00,
2013-12-14 05:35:00,8.1,-2.3,30.18,ENE,68,4.3,4.3,62,0.00,,,0.00,WUHU216HW,2013-12-14 11:35:00,
2013-12-14 05:36:00,8.1,-2.3,30.18,ENE,68,4.3,4.3,62,0.00,,,0.00,WUHU216HW,2013-12-14 11:36:00,
2013-12-14 06:00:00,8.3,-1.5,30.19,NNW,338,5.1,5.1,64,0.00,,,0.00,WUHU216HW,2013-12-14 12:00:00,
2013-12-14 06:05:00,8.3,-1.5,30.19,NNE,23,6.3,6.3,64,0.00,,,0.00,WUHU216HW,2013-12-14 12:05:00,
2013-12-14 06:06:00,8.3,-1.5,30.19,NNE,23,6.3,6.3,64,0.00,,,0.00,WUHU216HW,2013-12-14 12:06:00,
2013-12-14 06:10:00,8.3,-1.5,30.19,NNE,23,6.3,6.3,64,0.00,,,0.00,WUHU216HW,2013-12-14 12:10:00,
2013-12-14 06:30:00,8.1,-2.3,30.18,NNE,23,6.3,6.3,62,0.00,,,0.00,WUHU216HW,2013-12-14 12:30:00,
2013-12-14 06:31:00,8.1,-2.0,30.18,NE,45,6.3,6.3,63,0.00,,,0.00,WUHU216HW,2013-12-14 12:31:00,
2013-12-14 06:35:00,8.1,-2.0,30.18,NE,45,6.3,6.3,63,0.00,,,0.00,WUHU216HW,2013-12-14 12:35:00,
2013-12-14 06:36:00,8.1,-2.0,30.18,NE,45,6.3,6.3,63,0.00,,,0.00,WUHU216HW,2013-12-14 12:36:00,
2013-12-14 06:37:00,8.1,-2.0,30.18,NE,45,6.3,6.3,63,0.00,,,0.00,WUHU216HW,2013-12-14 12:37:00,
2013-12-14 06:40:00,8.1,-2.0,30.18,NE,45,6.3,6.3,63,0.00,,,0.00,WUHU216HW,2013-12-14 12:40:00,
2013-12-14 07:00:00,8.1,-2.3,30.19,NNE,23,3.4,3.4,62,0.00,,,0.00,WUHU216HW,2013-12-14 13:00:00,
2013-12-14 07:01:00,8.1,-2.3,30.19,NNE,23,3.4,3.4,62,0.00,,,0.00,WUHU216HW,2013-12-14 13:01:00,
2013-12-14 07:05:00,8.1,-2.3,30.19,NNE,23,3.4,3.4,62,0.00,,,0.00,WUHU216HW,2013-12-14 13:05:00,
2013-12-14 07:06:00,8.1,-2.3,30.19,NNE,23,3.4,3.4,62,0.00,,,0.00,WUHU216HW,2013-12-14 13:06:00,
2013-12-14 07:10:00,8.1,-2.3,30.19,NNE,23,3.4,3.4,62,0.00,,,0.00,WUHU216HW,2013-12-14 13:10:00,
2013-12-14 07:30:00,8.1,-3.0,30.18,ENE,68,0.0,0.0,60,0.00,,,0.00,WUHU216HW,2013-12-14 13:30:00,
2013-12-14 07:35:00,8.1,-3.4,30.18,NNE,23,2.5,2.5,59,0.00,,,0.00,WUHU216HW,2013-12-14 13:35:00,
2013-12-14 07:36:00,8.1,-3.4,30.18,NNE,23,2.5,2.5,59,0.00,,,0.00,WUHU216HW,2013-12-14 13:36:00,
2013-12-14 08:00:00,8.3,-2.1,30.18,NE,45,2.5,2.5,62,0.00,,,0.00,WUHU216HW,2013-12-14 14:00:00,
2013-12-14 08:05:00,8.3,-2.1,30.18,NE,45,2.5,2.5,62,0.00,,,0.00,WUHU216HW,2013-12-14 14:05:00,
2013-12-14 08:06:00,8.3,-2.1,30.18,NE,45,2.5,2.5,62,0.00,,,0.00,WUHU216HW,2013-12-14 14:06:00,
2013-12-14 08:30:00,8.8,-1.6,30.18,NNE,23,1.6,1.6,62,0.00,,,0.00,WUHU216HW,2013-12-14 14:30:00,
2013-12-14 08:31:00,9.0,-1.4,30.18,NE,34,1.3,1.6,62,0.00,,,0.00,WUHU216HW,2013-12-14 14:31:00,
2013-12-14 08:35:00,9.0,-1.4,30.18,NE,45,1.1,1.6,62,0.00,,,0.00,WUHU216HW,2013-12-14 14:35:00,
2013-12-14 08:36:00,9.0,-1.4,30.18,NE,45,1.1,1.6,62,0.00,,,0.00,WUHU216HW,2013-12-14 14:36:00,
2013-12-14 08:40:00,9.0,-1.4,30.18,NE,45,1.1,1.1,62,0.00,,,0.00,WUHU216HW,2013-12-14 14:40:00,
2013-12-14 09:00:00,9.7,-0.4,30.17,ENE,68,1.1,1.1,63,0.00,,,0.00,WUHU216HW,2013-12-14 15:00:00,
2013-12-14 09:01:00,9.7,-0.4,30.18,ENE,68,1.8,1.8,63,0.00,,,0.00,WUHU216HW,2013-12-14 15:01:00,
2013-12-14 09:05:00,9.7,-0.4,30.18,ENE,68,1.8,1.8,63,0.00,,,0.00,WUHU216HW,2013-12-14 15:05:00,
2013-12-14 09:06:00,9.7,-0.4,30.18,ENE,68,1.8,1.8,63,0.00,,,0.00,WUHU216HW,2013-12-14 15:06:00,
2013-12-14 09:10:00,9.7,-0.4,30.18,ENE,68,1.8,1.8,63,0.00,,,0.00,WUHU216HW,2013-12-14 15:10:00,
2013-12-14 09:30:00,9.7,0.5,30.18,NNW,338,0.9,0.9,66,0.00,,,0.00,WUHU216HW,2013-12-14 15:30:00,
2013-12-14 09:32:00,9.7,0.5,30.18,NNW,338,0.7,0.9,66,0.00,,,0.00,WUHU216HW,2013-12-14 15:32:00,
2013-12-14 09:35:00,9.7,0.5,30.18,NNW,338,0.2,0.9,66,0.00,,,0.00,WUHU216HW,2013-12-14 15:35:00,
2013-12-14 09:36:00,9.7,0.5,30.18,NNW,338,0.2,0.9,66,0.00,,,0.00,WUHU216HW,2013-12-14 15:36:00,
2013-12-14 09:37:00,9.7,0.5,30.18,NNW,338,0.2,0.9,66,0.00,,,0.00,WUHU216HW,2013-12-14 15:37:00,
2013-12-14 09:40:00,9.7,0.5,30.18,NNW,338,0.2,0.9,66,0.00,,,0.00,WUHU216HW,2013-12-14 15:40:00,
2013-12-14 10:00:00,12.1,3.4,30.17,ENE,68,1.1,1.1,68,0.00,,,0.00,WUHU216HW,2013-12-14 16:00:00,
2013-12-14 10:05:00,12.1,3.2,30.17,NE,45,1.3,1.3,67,0.00,,,0.00,WUHU216HW,2013-12-14 16:05:00,
2013-12-14 10:06:00,12.1,3.2,30.17,NE,45,1.3,1.3,67,0.00,,,0.00,WUHU216HW,2013-12-14 16:06:00,
2013-12-14 10:10:00,12.1,3.2,30.17,NE,45,1.3,1.3,67,0.00,,,0.00,WUHU216HW,2013-12-14 16:10:00,
2013-12-14 10:30:00,11.7,3.8,30.17,North,0,1.3,1.3,70,0.00,,,0.00,WUHU216HW,2013-12-14 16:30:00,
2013-12-14 10:35:00,11.7,3.4,30.17,NE,45,1.8,1.8,69,0.00,,,0.00,WUHU216HW,2013-12-14 16:35:00,
2013-12-14 10:36:00,11.7,3.4,30.17,NE,45,1.8,1.8,69,0.00,,,0.00,WUHU216HW,2013-12-14 16:36:00,
2013-12-14 10:40:00,11.7,3.4,30.17,NE,45,1.8,1.8,69,0.00,,,0.00,WUHU216HW,2013-12-14 16:40:00,
2013-12-14 11:00:00,12.8,4.5,30.14,North,0,1.3,1.3,69,0.00,,,0.00,WUHU216HW,2013-12-14 17:00:00,
2013-12-14 11:05:00,13.0,4.7,30.14,North,0,0.7,1.3,69,0.00,,,0.00,WUHU216HW,2013-12-14 17:05:00,
2013-12-14 11:06:00,13.0,4.7,30.14,North,0,0.7,1.3,69,0.00,,,0.00,WUHU216HW,2013-12-14 17:06:00,
2013-12-14 11:10:00,13.0,4.7,30.14,North,0,0.7,0.7,69,0.00,,,0.00,WUHU216HW,2013-12-14 17:10:00,
2013-12-14 11:30:00,15.5,7.1,30.12,ESE,113,1.3,1.3,69,0.00,,,0.00,WUHU216HW,2013-12-14 17:30:00,
2013-12-14 11:31:00,15.5,7.1,30.12,ESE,113,1.3,1.3,69,0.00,,,0.00,WUHU216HW,2013-12-14 17:31:00,
2013-12-14 11:35:00,15.5,7.1,30.12,ESE,113,1.3,1.3,69,0.00,,,0.00,WUHU216HW,2013-12-14 17:35:00,
2013-12-14 11:36:00,15.5,7.1,30.12,ESE,113,1.3,1.3,69,0.00,,,0.00,WUHU216HW,2013-12-14 17:36:00,
2013-12-14 11:37:00,15.5,7.1,30.12,ESE,113,1.3,1.3,69,0.00,,,0.00,WUHU216HW,2013-12-14 17:37:00,
2013-12-14 12:00:00,14.4,5.8,30.11,SSW,203,2.2,2.2,68,0.00,,,0.00,WUHU216HW,2013-12-14 18:00:00,
2013-12-14 12:01:00,14.4,6.1,30.11,WSW,248,2.0,2.2,69,0.00,,,0.00,WUHU216HW,2013-12-14 18:01:00,
2013-12-14 12:05:00,14.4,6.1,30.11,WSW,248,2.0,2.2,69,0.00,,,0.00,WUHU216HW,2013-12-14 18:05:00,
2013-12-14 12:06:00,14.4,6.1,30.11,WSW,248,2.0,2.2,69,0.00,,,0.00,WUHU216HW,2013-12-14 18:06:00,
2013-12-14 12:07:00,14.4,6.1,30.11,WSW,248,2.0,2.2,69,0.00,,,0.00,WUHU216HW,2013-12-14 18:07:00,
2013-12-14 12:10:00,14.4,6.1,30.11,WSW,248,2.0,2.0,69,0.00,,,0.00,WUHU216HW,2013-12-14 18:10:00,
2013-12-14 12:30:00,13.1,5.2,30.08,West,270,4.3,4.3,70,0.00,,,0.00,WUHU216HW,2013-12-14 18:30:00,
2013-12-14 12:31:00,13.1,5.2,30.08,WSW,248,4.9,4.9,70,0.00,,,0.00,WUHU216HW,2013-12-14 18:31:00,
2013-12-14 12:35:00,13.1,5.2,30.08,WSW,248,4.9,4.9,70,0.00,,,0.00,WUHU216HW,2013-12-14 18:35:00,
2013-12-14 12:36:00,13.1,5.2,30.08,WSW,248,4.9,4.9,70,0.00,,,0.00,WUHU216HW,2013-12-14 18:36:00,
2013-12-14 12:37:00,13.1,5.2,30.08,WSW,248,4.9,4.9,70,0.00,,,0.00,WUHU216HW,2013-12-14 18:37:00,
2013-12-14 13:00:00,14.4,5.8,30.07,SW,225,4.0,4.0,68,0.00,,,0.00,WUHU216HW,2013-12-14 19:00:00,
2013-12-14 13:05:00,14.4,5.8,30.07,SSW,203,1.6,4.0,68,0.00,,,0.00,WUHU216HW,2013-12-14 19:05:00,
2013-12-14 13:06:00,14.4,5.8,30.07,SSW,203,1.6,4.0,68,0.00,,,0.00,WUHU216HW,2013-12-14 19:06:00,
2013-12-14 13:10:00,14.4,5.8,30.07,SSW,203,1.6,2.5,68,0.00,,,0.00,WUHU216HW,2013-12-14 19:10:00,
2013-12-14 13:30:00,13.9,5.6,30.06,WSW,248,4.0,4.0,69,0.00,,,0.00,WUHU216HW,2013-12-14 19:30:00,
2013-12-14 13:31:00,13.9,5.6,30.06,WSW,248,3.3,4.0,69,0.00,,,0.00,WUHU216HW,2013-12-14 19:31:00,
2013-12-14 13:32:00,13.9,5.6,30.06,WSW,248,2.9,4.0,69,0.00,,,0.00,WUHU216HW,2013-12-14 19:32:00,
2013-12-14 13:35:00,13.9,5.6,30.06,WSW,248,1.8,4.0,69,0.00,,,0.00,WUHU216HW,2013-12-14 19:35:00,
2013-12-14 13:36:00,13.9,5.6,30.06,WSW,248,1.8,4.0,69,0.00,,,0.00,WUHU216HW,2013-12-14 19:36:00,
2013-12-14 13:37:00,13.9,5.6,30.06,WSW,248,1.8,4.0,69,0.00,,,0.00,WUHU216HW,2013-12-14 19:37:00,
2013-12-14 13:40:00,13.9,5.6,30.06,WSW,248,1.8,4.0,69,0.00,,,0.00,WUHU216HW,2013-12-14 19:40:00,
2013-12-14 14:00:00,13.3,5.0,30.04,NW,315,5.1,5.1,69,0.00,,,0.00,WUHU216HW,2013-12-14 20:00:00,
2013-12-14 14:05:00,13.3,5.0,30.04,NW,315,4.7,5.1,69,0.00,,,0.00,WUHU216HW,2013-12-14 20:05:00,
2013-12-14 14:10:00,13.3,5.0,30.04,NW,315,4.7,4.7,69,0.00,,,0.00,WUHU216HW,2013-12-14 20:10:00,
2013-12-14 14:30:00,12.6,4.3,30.04,West,270,5.8,5.8,69,0.00,,,0.00,WUHU216HW,2013-12-14 20:30:00,
2013-12-14 14:31:00,12.6,4.7,30.04,West,270,5.8,5.8,70,0.00,,,0.00,WUHU216HW,2013-12-14 20:31:00,
2013-12-14 14:35:00,12.6,4.7,30.04,West,270,5.8,5.8,70,0.00,,,0.00,WUHU216HW,2013-12-14 20:35:00,
2013-12-14 14:36:00,12.6,4.7,30.04,West,270,5.8,5.8,70,0.00,,,0.00,WUHU216HW,2013-12-14 20:36:00,
2013-12-14 14:40:00,12.6,4.7,30.04,West,270,5.8,5.8,70,0.00,,,0.00,WUHU216HW,2013-12-14 20:40:00,
2013-12-14 15:00:00,12.6,4.7,30.04,West,270,5.8,5.8,70,0.00,,,0.00,WUHU216HW,2013-12-14 21:00:00,
2013-12-14 15:05:00,12.6,4.7,30.04,WNW,293,6.3,6.3,70,0.00,,,0.00,WUHU216HW,2013-12-14 21:05:00,
2013-12-14 15:10:00,12.6,4.7,30.04,WNW,293,6.3,6.3,70,0.00,,,0.00,WUHU216HW,2013-12-14 21:10:00,
2013-12-14 15:30:00,11.5,3.6,30.04,NW,315,6.3,6.3,70,0.00,,,0.00,WUHU216HW,2013-12-14 21:30:00,
2013-12-14 15:31:00,11.3,3.4,30.04,NW,308,6.1,6.3,70,0.00,,,0.00,WUHU216HW,2013-12-14 21:31:00,
2013-12-14 15:35:00,11.3,3.4,30.04,WNW,293,5.6,6.3,70,0.00,,,0.00,WUHU216HW,2013-12-14 21:35:00,
2013-12-14 15:36:00,11.3,3.4,30.04,WNW,293,5.6,6.3,70,0.00,,,0.00,WUHU216HW,2013-12-14 21:36:00,
2013-12-14 15:40:00,11.3,3.4,30.04,WNW,293,5.6,6.3,70,0.00,,,0.00,WUHU216HW,2013-12-14 21:40:00,
2013-12-14 16:00:00,10.4,2.2,30.04,West,270,5.4,5.4,69,0.00,,,0.00,WUHU216HW,2013-12-14 22:00:00,
2013-12-14 16:01:00,10.4,2.5,30.03,WNW,293,6.5,6.9,70,0.00,,,0.00,WUHU216HW,2013-12-14 22:01:00,
2013-12-14 16:05:00,10.4,2.5,30.03,WNW,293,6.5,6.9,70,0.00,,,0.00,WUHU216HW,2013-12-14 22:05:00,
2013-12-14 16:06:00,10.4,2.5,30.03,WNW,293,6.5,6.9,70,0.00,,,0.00,WUHU216HW,2013-12-14 22:06:00,
2013-12-14 16:10:00,10.4,2.5,30.03,WNW,293,6.5,6.9,70,0.00,,,0.00,WUHU216HW,2013-12-14 22:10:00,
2013-12-14 16:30:00,9.9,1.4,30.03,WNW,293,7.6,7.6,68,0.00,,,0.00,WUHU216HW,2013-12-14 22:30:00,
2013-12-14 16:31:00,9.9,1.4,30.03,West,270,8.1,8.1,68,0.00,,,0.00,WUHU216HW,2013-12-14 22:31:00,
2013-12-14 16:35:00,9.9,1.4,30.03,West,270,8.1,8.1,68,0.00,,,0.00,WUHU216HW,2013-12-14 22:35:00,
2013-12-14 16:36:00,9.9,1.4,30.03,West,270,8.1,8.1,68,0.00,,,0.00,WUHU216HW,2013-12-14 22:36:00,
2013-12-14 17:00:00,9.5,0.1,30.03,West,270,5.4,5.4,65,0.00,,,0.00,WUHU216HW,2013-12-14 23:00:00,
2013-12-14 17:05:00,9.5,0.1,30.03,West,270,5.4,5.4,65,0.00,,,0.00,WUHU216HW,2013-12-14 23:05:00,
2013-12-14 17:10:00,9.5,0.1,30.03,West,270,5.4,5.4,65,0.00,,,0.00,WUHU216HW,2013-12-14 23:10:00,
2013-12-14 17:30:00,9.2,-0.3,30.03,West,270,4.0,4.0,65,0.00,,,0.00,WUHU216HW,2013-12-14 23:30:00,
2013-12-14 17:31:00,9.2,-0.3,30.03,West,270,3.7,4.0,65,0.00,,,0.00,WUHU216HW,2013-12-14 23:31:00,
2013-12-14 17:35:00,9.2,-0.3,30.03,West,270,3.6,4.0,65,0.00,,,0.00,WUHU216HW,2013-12-14 23:35:00,
2013-12-14 17:36:00,9.2,-0.3,30.03,West,270,3.6,4.0,65,0.00,,,0.00,WUHU216HW,2013-12-14 23:36:00,
2013-12-14 17:40:00,9.2,-0.3,30.03,West,270,3.6,3.6,65,0.00,,,0.00,WUHU216HW,2013-12-14 23:40:00,
2013-12-14 18:00:00,9.0,0.2,30.03,WSW,248,7.6,7.6,67,0.00,,,0.00,WUHU216HW,2013-12-15 00:00:00,
2013-12-14 18:05:00,9.0,0.2,30.03,West,270,8.5,8.5,67,0.00,,,0.00,WUHU216HW,2013-12-15 00:05:00,
2013-12-14 18:06:00,9.0,0.2,30.03,West,270,8.5,8.5,67,0.00,,,0.00,WUHU216HW,2013-12-15 00:06:00,
2013-12-14 18:10:00,9.0,0.2,30.03,West,270,8.5,8.5,67,0.00,,,0.00,WUHU216HW,2013-12-15 00:10:00,
2013-12-14 18:30:00,8.3,0.5,30.03,West,270,11.2,11.2,70,0.00,,,0.00,WUHU216HW,2013-12-15 00:30:00,
2013-12-14 18:31:00,8.3,0.5,30.03,West,270,10.6,11.2,70,0.00,,,0.00,WUHU216HW,2013-12-15 00:31:00,
2013-12-14 18:35:00,8.3,0.5,30.03,West,270,9.4,11.2,70,0.00,,,0.00,WUHU216HW,2013-12-15 00:35:00,
2013-12-14 18:36:00,8.3,0.5,30.03,West,270,9.4,11.2,70,0.00,,,0.00,WUHU216HW,2013-12-15 00:36:00,
2013-12-14 18:40:00,8.3,0.5,30.03,West,270,9.4,9.4,70,0.00,,,0.00,WUHU216HW,2013-12-15 00:40:00,
2013-12-14 19:00:00,8.3,0.5,30.03,NW,315,11.4,11.4,70,0.00,,,0.00,WUHU216HW,2013-12-15 01:00:00,
2013-12-14 19:01:00,8.3,0.5,30.03,NW,315,11.3,11.4,70,0.00,,,0.00,WUHU216HW,2013-12-15 01:01:00,
2013-12-14 19:05:00,8.3,0.5,30.03,NW,315,11.2,11.4,70,0.00,,,0.00,WUHU216HW,2013-12-15 01:05:00,
2013-12-14 19:06:00,8.3,0.5,30.03,NW,315,11.2,11.4,70,0.00,,,0.00,WUHU216HW,2013-12-15 01:06:00,
2013-12-14 19:10:00,8.3,0.5,30.03,NW,315,11.2,11.2,70,0.00,,,0.00,WUHU216HW,2013-12-15 01:10:00,
2013-12-14 19:30:00,7.9,0.2,30.02,WNW,293,9.6,9.6,70,0.00,,,0.00,WUHU216HW,2013-12-15 01:30:00,
2013-12-14 19:31:00,7.9,0.2,30.02,WNW,293,9.6,9.6,70,0.00,,,0.00,WUHU216HW,2013-12-15 01:31:00,
2013-12-14 19:35:00,7.9,0.2,30.02,WNW,293,9.6,9.6,70,0.00,,,0.00,WUHU216HW,2013-12-15 01:35:00,
2013-12-14 19:36:00,7.9,0.2,30.02,WNW,293,9.6,9.6,70,0.00,,,0.00,WUHU216HW,2013-12-15 01:36:00,
2013-12-14 19:40:00,7.9,0.2,30.02,WNW,293,9.6,9.6,70,0.00,,,0.00,WUHU216HW,2013-12-15 01:40:00,
2013-12-14 20:00:00,7.6,-0.2,30.01,West,270,8.3,8.3,70,0.00,,,0.00,WUHU216HW,2013-12-15 02:00:00,
2013-12-14 20:01:00,7.6,-0.2,30.02,WNW,293,10.3,10.3,70,0.00,,,0.00,WUHU216HW,2013-12-15 02:01:00,
2013-12-14 20:05:00,7.6,-0.2,30.02,WNW,293,10.3,10.3,70,0.00,,,0.00,WUHU216HW,2013-12-15 02:05:00,
2013-12-14 20:06:00,7.6,-0.2,30.02,WNW,293,10.3,10.3,70,0.00,,,0.00,WUHU216HW,2013-12-15 02:06:00,
2013-12-14 20:10:00,7.6,-0.2,30.02,WNW,293,10.3,10.3,70,0.00,,,0.00,WUHU216HW,2013-12-15 02:10:00,
2013-12-14 20:30:00,7.0,-0.4,30.02,NW,315,9.4,9.4,71,0.00,,,0.00,WUHU216HW,2013-12-15 02:30:00,
2013-12-14 20:31:00,7.0,-0.4,30.02,NW,315,9.3,9.4,71,0.00,,,0.00,WUHU216HW,2013-12-15 02:31:00,
2013-12-14 20:35:00,7.0,-0.4,30.02,NW,315,9.2,9.4,71,0.00,,,0.00,WUHU216HW,2013-12-15 02:35:00,
2013-12-14 20:36:00,7.0,-0.4,30.02,NW,315,9.2,9.4,71,0.00,,,0.00,WUHU216HW,2013-12-15 02:36:00,
2013-12-14 20:40:00,7.0,-0.4,30.02,NW,315,9.2,9.4,71,0.00,,,0.00,WUHU216HW,2013-12-15 02:40:00,
2013-12-14 21:00:00,4.9,-2.2,30.01,NW,315,8.5,8.5,72,0.00,,,0.00,WUHU216HW,2013-12-15 03:00:00,
2013-12-14 21:01:00,4.9,-2.2,30.01,NW,315,8.5,8.5,72,0.00,,,0.00,WUHU216HW,2013-12-15 03:01:00,
2013-12-14 21:05:00,4.9,-2.2,30.01,NW,315,8.5,8.5,72,0.00,,,0.00,WUHU216HW,2013-12-15 03:05:00,
2013-12-14 21:06:00,4.9,-2.2,30.01,NW,315,8.5,8.5,72,0.00,,,0.00,WUHU216HW,2013-12-15 03:06:00,
2013-12-14 21:30:00,4.0,-2.9,30.02,NW,315,8.7,8.7,73,0.00,,,0.00,WUHU216HW,2013-12-15 03:30:00,
2013-12-14 21:35:00,4.0,-2.9,30.02,WNW,293,9.8,10.3,73,0.00,,,0.00,WUHU216HW,2013-12-15 03:35:00,
2013-12-14 21:40:00,4.0,-2.9,30.02,WNW,293,9.8,10.3,73,0.00,,,0.00,WUHU216HW,2013-12-15 03:40:00,
2013-12-14 22:00:00,2.9,-4.1,30.02,NW,315,4.0,4.0,72,0.00,,,0.00,WUHU216HW,2013-12-15 04:00:00,
2013-12-14 22:05:00,2.9,-4.1,30.02,WNW,293,4.0,4.0,72,0.00,,,0.00,WUHU216HW,2013-12-15 04:05:00,
2013-12-14 22:10:00,2.9,-4.1,30.02,WNW,293,4.0,4.0,72,0.00,,,0.00,WUHU216HW,2013-12-15 04:10:00,
2013-12-14 22:30:00,1.8,-5.2,30.03,West,270,6.3,6.3,72,0.00,,,0.00,WUHU216HW,2013-12-15 04:30:00,
2013-12-14 22:31:00,1.8,-5.2,30.03,West,270,6.3,6.3,72,0.00,,,0.00,WUHU216HW,2013-12-15 04:31:00,
2013-12-14 22:35:00,1.8,-5.2,30.03,West,270,6.3,6.3,72,0.00,,,0.00,WUHU216HW,2013-12-15 04:35:00,
2013-12-14 22:36:00,1.8,-5.2,30.03,West,270,6.3,6.3,72,0.00,,,0.00,WUHU216HW,2013-12-15 04:36:00,
2013-12-14 23:00:00,0.9,-5.8,30.04,WNW,293,10.3,10.3,73,0.00,,,0.00,WUHU216HW,2013-12-15 05:00:00,
2013-12-14 23:01:00,0.9,-5.8,30.04,WNW,293,11.6,11.6,73,0.00,,,0.00,WUHU216HW,2013-12-15 05:01:00,
2013-12-14 23:06:00,0.9,-5.8,30.04,WNW,293,11.6,11.6,73,0.00,,,0.00,WUHU216HW,2013-12-15 05:06:00,
2013-12-14 23:07:00,0.9,-5.8,30.04,WNW,293,11.6,11.6,73,0.00,,,0.00,WUHU216HW,2013-12-15 05:07:00,
2013-12-14 23:30:00,-0.4,-6.7,30.05,WSW,248,6.0,6.0,74,0.00,,,0.00,WUHU216HW,2013-12-15 05:30:00,
2013-12-14 23:31:00,-0.4,-7.0,30.05,WNW,293,7.6,7.6,73,0.00,,,0.00,WUHU216HW,2013-12-15 05:31:00,
2013-12-14 23:35:00,-0.4,-7.0,30.05,WNW,293,7.6,7.6,73,0.00,,,0.00,WUHU216HW,2013-12-15 05:35:00,
2013-12-14 23:36:00,-0.4,-7.0,30.05,WNW,293,7.6,7.6,73,0.00,,,0.00,WUHU216HW,2013-12-15 05:36:00,
2013-12-14 23:40:00,-0.4,-7.0,30.05,WNW,293,7.6,7.6,73,0.00,,,0.00,WUHU216HW,2013-12-15 05:40:00,